TimeCDT,TemperatureF,Dew PointF,Humidity,Sea Level PressureIn,VisibilityMPH,Wind Direction,Wind SpeedMPH,Gust SpeedMPH,PrecipitationIn,Events,Conditions,WindDirDegrees,DateUTC
12:56 AM,57.0,54.0,89,30.06,10.0,Calm,Calm,-,N/A,,Clear,0,2013-04-08 05:56:00
1:56 AM,55.0,52.0,89,30.04,10.0,Calm,Calm,-,N/A,,Clear,0,2013-04-08 06:56:00
2:56 AM,53.1,52.0,96,30.02,5.0,Calm,Calm,-,N/A,,Mostly Cloudy,0,2013-04-08 07:56:00
3:56 AM,55.9,52.0,87,30.03,10.0,Calm,Calm,-,N/A,,Overcast,0,2013-04-08 08:56:00
4:56 AM,55.0,54.0,96,30.03,4.0,ESE,4.6,-,N/A,,Clear,120,2013-04-08 09:56:00
5:56 AM,55.9,54.0,93,30.05,6.0,Calm,Calm,-,N/A,,Clear,0,2013-04-08 10:56:00
6:10 AM,55.4,53.6,94,30.05,2.5,East,3.5,-,N/A,,Clear,100,2013-04-08 11:10:00
6:19 AM,55.4,53.6,94,30.06,4.0,ESE,3.5,-,N/A,,Clear,110,2013-04-08 11:19:00
6:56 AM,55.9,54.0,93,30.06,4.0,Calm,Calm,-,N/A,,Clear,0,2013-04-08 11:56:00
7:56 AM,60.1,57.0,90,30.08,9.0,ESE,6.9,-,N/A,,Clear,110,2013-04-08 12:56:00
8:56 AM,64.9,57.0,75,30.09,10.0,SE,8.1,-,N/A,,Overcast,140,2013-04-08 13:56:00
9:56 AM,70.0,54.0,57,30.09,10.0,SSE,6.9,-,N/A,,Mostly Cloudy,150,2013-04-08 14:56:00
10:56 AM,75.0,54.0,48,30.10,10.0,South,10.4,-,N/A,,Clear,180,2013-04-08 15:56:00
11:56 AM,78.1,55.0,45,30.09,10.0,SSW,10.4,16.1,N/A,,Scattered Clouds,200,2013-04-08 16:56:00
12:56 PM,78.1,55.0,45,30.07,10.0,SSE,10.4,18.4,N/A,,Mostly Cloudy,150,2013-04-08 17:56:00
1:56 PM,78.1,55.0,45,30.05,10.0,Variable,4.6,-,N/A,,Mostly Cloudy,0,2013-04-08 18:56:00
2:56 PM,78.1,55.0,45,30.04,10.0,South,9.2,-,N/A,,Overcast,190,2013-04-08 19:56:00
3:56 PM,79.0,54.0,42,30.02,10.0,SSW,9.2,-,N/A,,Mostly Cloudy,200,2013-04-08 20:56:00
4:56 PM,79.0,55.0,44,30.02,10.0,SSW,9.2,-,N/A,,Mostly Cloudy,210,2013-04-08 21:56:00
5:56 PM,75.9,55.9,50,30.03,10.0,South,5.8,-,N/A,,Mostly Cloudy,190,2013-04-08 22:56:00
6:56 PM,75.0,55.0,50,30.03,10.0,South,8.1,-,N/A,,Partly Cloudy,180,2013-04-08 23:56:00
7:56 PM,71.1,55.0,57,30.04,10.0,South,5.8,-,N/A,,Clear,180,2013-04-09 00:56:00
8:56 PM,70.0,55.0,59,30.07,10.0,South,6.9,-,N/A,,Clear,190,2013-04-09 01:56:00
9:56 PM,66.9,55.0,66,30.08,9.0,South,4.6,-,N/A,,Clear,180,2013-04-09 02:56:00
10:56 PM,64.9,55.9,73,30.07,10.0,SSE,4.6,-,N/A,,Clear,160,2013-04-09 03:56:00
11:56 PM,64.0,55.9,75,30.07,10.0,South,4.6,-,N/A,,Clear,170,2013-04-09 04:56:00